East Quogue, NY

5:28 AM EST on February 21, 2017 (GMT -0500)
The Gabreski

Weather History for KFOK - August, 2014

Change the Weather History Date:

Thursday, August 14, 2014

  Actual Average Record
Temperature  
Mean Temperature 68 °F -  
Max Temperature 78 °F 78 °F 93 °F (2016)
Min Temperature 57 °F 61 °F 48 °F (2006)
Cooling Degree Days 2    
Growing Degree Days 18 (Base 50)    
Moisture  
Dew Point 56 °F    
Average Humidity 67    
Maximum Humidity 90    
Minimum Humidity 36    
Precipitation  
Precipitation 0.01 in - - ()
Sea Level Pressure  
Sea Level Pressure 29.84 in    
Wind  
Wind Speed 6 mph (West)    
Max Wind Speed 15 mph    
Max Gust Speed 23 mph    
Visibility 10 miles    
Events      
Averages and records for this station are not official NWS values.
T = Trace of Precipitation, MM = Missing Value Source: NWS Daily Summary

Daily Weather History Graph

Daily Weather History Graph

Search for Another Location

Airport or City:

Trip Planner

Search our weather history database for the weather conditions in past years. The results will help you decide how hot, cold, wet, or windy it might be!

Date:

Astronomy

Aug. 14, 2014 Rise Set
Actual Time 5:59 AM EDT 7:50 PM EDT
Civil Twilight 5:30 AM EDT 8:19 PM EDT
Nautical Twilight 4:54 AM EDT 8:55 PM EDT
Astronomical Twilight 4:15 AM EDT 9:33 PM EDT
Moon 10:09 PM EDT (8/14) 10:35 AM EDT (8/14)
Length of Visible Light 14h 49m
Length of Day
13h 50m
Waning Gibbous, 79% of the Moon is Illuminated
Aug 14
Waning Gibbous
Aug 17
Last Quarter
Aug 25
New
Sep 2
First Quarter
Sep 8
Full

Hourly Weather History & Observations

Time (EDT) Temp. Dew Point Humidity Pressure Visibility Wind Dir Wind Speed Gust Speed Precip Events Conditions
12:53 AM 64.9 °F 60.1 °F 84% 29.76 in 10.0 mi NW 3.5 mph - N/A   Clear
1:53 AM 66.0 °F 60.1 °F 81% 29.76 in 10.0 mi NW 4.6 mph - N/A   Clear
2:53 AM 62.1 °F 57.9 °F 86% 29.77 in 10.0 mi NW 3.5 mph - N/A   Clear
3:53 AM 59.0 °F 55.9 °F 90% 29.77 in 10.0 mi NW 4.6 mph - N/A   Clear
4:53 AM 57.9 °F 55.0 °F 90% 29.79 in 10.0 mi West 4.6 mph - N/A   Clear
5:53 AM 60.1 °F 57.0 °F 90% 29.81 in 10.0 mi WNW 4.6 mph - N/A   Clear
6:53 AM 60.1 °F 57.0 °F 90% 29.83 in 10.0 mi WNW 3.5 mph - N/A   Clear
7:53 AM 66.9 °F 60.1 °F 79% 29.84 in 10.0 mi NW 5.8 mph - N/A   Mostly Cloudy
8:01 AM 66.2 °F 60.8 °F 83% 29.85 in 10.0 mi NW 6.9 mph - N/A   Scattered Clouds
8:36 AM 68.0 °F 57.2 °F 68% 29.86 in 10.0 mi NW 12.7 mph 16.1 mph 0.01 in   Mostly Cloudy
8:53 AM 66.9 °F 57.0 °F 70% 29.86 in 10.0 mi NNW 9.2 mph - 0.01 in   Overcast
9:16 AM 68.0 °F 57.2 °F 68% 29.87 in 10.0 mi NW 8.1 mph - N/A   Mostly Cloudy
9:53 AM 69.1 °F 57.0 °F 65% 29.87 in 10.0 mi WNW 10.4 mph - N/A   Scattered Clouds
10:53 AM 73.0 °F 51.1 °F 46% 29.87 in 10.0 mi Variable 4.6 mph - N/A   Clear
11:53 AM 73.9 °F 53.1 °F 48% 29.86 in 10.0 mi WNW 9.2 mph 16.1 mph N/A   Clear
12:53 PM 75.9 °F 48.0 °F 37% 29.86 in 10.0 mi West 10.4 mph 18.4 mph N/A   Clear
1:53 PM 75.0 °F 48.0 °F 38% 29.86 in 10.0 mi WNW 13.8 mph 21.9 mph N/A   Clear
2:53 PM 77.0 °F 50.0 °F 39% 29.86 in 10.0 mi WNW 15.0 mph 23.0 mph N/A   Scattered Clouds
3:53 PM 77.0 °F 48.9 °F 37% 29.85 in 10.0 mi West 15.0 mph 23.0 mph N/A   Partly Cloudy
4:53 PM 78.1 °F 48.9 °F 36% 29.85 in 10.0 mi West 11.5 mph - N/A   Clear
5:53 PM 75.0 °F 55.0 °F 50% 29.85 in 10.0 mi SW 13.8 mph 19.6 mph N/A   Clear
6:53 PM 72.0 °F 55.9 °F 57% 29.86 in 10.0 mi SW 6.9 mph - N/A   Clear
7:53 PM 68.0 °F 57.0 °F 68% 29.87 in 10.0 mi SSW 4.6 mph - N/A   Clear
8:53 PM 64.9 °F 55.9 °F 73% 29.88 in 10.0 mi South 3.5 mph - N/A   Clear
9:53 PM 66.0 °F 59.0 °F 78% 29.88 in 10.0 mi SSW 3.5 mph - N/A   Clear
10:53 PM 69.1 °F 62.1 °F 78% 29.88 in 10.0 mi SSW 4.6 mph - N/A   Mostly Cloudy
11:53 PM 71.1 °F 63.0 °F 75% 29.88 in 10.0 mi SW 8.1 mph - N/A   Mostly Cloudy